Regional Weather Roundup
Issued by NWS

Current Version | Previous Version | Text Only | Print | Product List | Glossary Off
Versions: 1 2 3 4 5 6 7 8 9 10 11 12 13 14 15 16 17 18 19 20 21 22 23 24 25 26 27 28 29 30 31 32 33 34 35 36 37 38 39 40 41 42 43 44 45 46 47 48 49 50

000
ASUS43 KLMK 230810
RWRKY
NATIONAL WEATHER SERVICE LOUISVILLE KY
300 AM EST SUN NOV 23 2014

NOTE "FAIR" INDICATES FEW OR NO CLOUDS BELOW 12,000 FEET
WITH NO SIGNIFICANT WEATHER AND/OR OBSTRUCTIONS TO VISIBILITY.

KYZ001>023-026-027-061>063-070>075-230900-
WESTERN AND SOUTH CENTRAL KENTUCKY

CITY           SKY/WX    TMP DP  RH WIND       PRES   REMARKS
PADUCAH        CLEAR     52  43  71 SE9       29.91F
HENDERSON      PTCLDY    52  37  58 SE7       29.95F
OWENSBORO      PTCLDY    49  40  71 MISG      29.99F
HOPKINSVILLE   PTCLDY    53  41  62 SE6       29.97F
BOWLING GREEN  PTCLDY    54  37  52 S8        30.02F
GLASGOW        MOCLDY    52  35  52 S3        30.03S
$$

KYZ024-025-028>034-038-045-046-053-230900-
NORTH CENTRAL KENTUCKY

CITY           SKY/WX    TMP DP  RH WIND       PRES   REMARKS
LOUISVILLE/SDF CLOUDY    55  37  50 S10       30.02F
LOUISVILLE/LOU CLOUDY    52  36  54 S5        30.03F
FORT KNOX      CLOUDY    53  37  55 S9        30.01F
$$

KYZ035>037-039>044-047>052-055>060-089>105-230900-
NORTHEAST KENTUCKY

CITY           SKY/WX    TMP DP  RH WIND       PRES   REMARKS
LEXINGTON      MOCLDY    49  36  61 S8        30.07S
COVINGTON      CLOUDY    52  35  52 S8        30.04S
FRANKFORT      CLOUDY    49  37  63 SE5       30.04F
$$

KYZ054-064>069-076>088-106>120-230900-
SOUTHEAST KENTUCKY

CITY           SKY/WX    TMP DP  RH WIND       PRES   REMARKS
JACKSON        CLOUDY    51  30  44 VRB3      30.10S
LONDON         MOCLDY    45  33  63 SE5       30.10S
SOMERSET       CLOUDY    50  34  53 CALM      30.09F
MIDDLESBORO    PTCLDY    35  32  90 CALM      30.15F
MONTICELLO     PTSUNNY   52  38  58 S7        30.10F
$$



USA.gov is the U.S. government's official web portal to all federal, state and local government web resources and services.